Theta_e
361 361 362 362 363 363 362 361 360 353 359 356 355 356 356 355 355 355 355 355 354 352 352 352 351 349 343 338 333 331 332 333 338 344 345 343 343 338 333 335 334 332 324
358 359 362 361 361 363 361 361 359 360 356 357 355 357 358 354 356 355 355 354 355 355 352 352 350 349 345 340 334 332 332 334 332 345 344 344 340 333 331 333 332 330 333
358 360 360 360 361 362 362 361 361 360 360 361 357 358 359 359 358 358 357 354 355 356 355 353 352 349 347 341 332 332 330 331 332 330 343 342 341 336 331 332 332 333 333
356 357 357 359 359 359 360 360 360 361 360 363 362 362 363 362 360 359 358 358 356 354 355 352 352 350 347 342 337 330 331 333 330 331 331 341 337 338 335 334 332 331 332
356 359 361 361 359 361 357 362 360 360 363 363 364 364 364 364 363 363 360 360 358 357 356 353 353 351 348 344 338 333 329 330 332 330 332 334 336 337 334 333 331 330 330
357 346 350 357 359 360 362 360 361 361 360 365 365 366 366 365 362 360 361 361 360 358 356 356 353 352 349 344 338 333 329 330 329 334 332 330 335 336 333 332 332 332 329
341 339 335 334 335 355 358 354 359 360 361 362 362 365 367 366 364 360 359 361 360 359 358 357 356 352 349 343 339 333 330 329 334 330 333 336 337 333 332 330 331 330 328
341 339 339 335 339 336 337 333 333 352 360 363 364 363 364 366 366 364 360 358 360 359 359 358 356 350 346 343 338 335 329 329 330 332 329 330 331 336 332 330 329 327 325
344 338 335 333 338 347 342 334 333 355 362 363 364 364 365 364 365 364 363 361 358 358 357 357 357 352 348 341 338 333 328 325 327 330 329 329 331 331 332 330 329 326 324
362 360 357 354 352 351 352 355 359 361 363 363 363 362 365 366 366 365 363 361 358 357 356 356 355 351 347 340 337 331 327 322 322 328 327 326 327 329 331 329 328 326 323
350 353 351 350 350 350 348 349 347 350 349 355 365 363 363 365 364 364 362 360 360 356 353 351 350 348 346 342 336 332 331 332 329 326 327 325 325 327 330 330 325 322 323
350 350 351 350 348 346 347 345 344 349 346 348 352 362 366 363 361 362 360 360 359 354 348 347 345 341 342 343 339 337 332 332 330 327 326 326 326 327 327 325 321 325 328
349 350 351 352 351 350 349 350 348 344 348 347 345 348 354 360 359 357 355 356 355 353 349 348 345 344 343 338 336 334 333 331 329 327 325 326 324 324 323 322 319 321 325
343 343 345 346 345 346 348 350 350 348 344 341 346 347 350 352 352 352 353 353 350 348 347 344 341 339 336 335 333 330 328 330 328 322 321 322 322 320 319 318 318 323 323
339 339 339 339 339 340 344 340 341 339 338 340 340 345 345 349 354 349 350 349 350 347 342 338 337 334 332 329 328 328 327 326 325 322 320 321 321 320 321 320 322 322 323
337 336 333 331 329 329 328 328 328 329 334 334 336 335 335 338 347 349 346 347 347 343 334 332 329 328 327 325 325 325 325 324 323 322 321 320 322 324 322 325 323 324 325
338 336 332 327 326 326 326 326 328 328 329 329 337 337 337 336 338 343 343 344 343 338 334 329 328 327 326 325 324 323 322 322 321 321 320 315 320 322 324 324 323 324 324
336 333 330 326 325 326 327 328 329 330 332 334 334 335 339 340 339 338 340 338 334 334 334 331 329 328 327 327 325 324 322 322 320 317 316 320 323 323 324 324 323 322 321
333 332 330 328 326 325 325 325 326 327 327 327 332 335 341 340 337 336 339 334 330 328 331 332 330 330 329 327 324 321 320 320 319 319 319 319 318 322 323 321 321 319 316
329 327 325 323 322 324 325 326 327 328 328 332 333 335 337 332 333 335 335 336 329 328 328 330 330 331 327 325 323 321 318 316 316 317 317 316 316 319 321 320 320 319 318
325 324 323 322 323 323 324 324 325 326 327 328 333 335 335 335 337 335 330 331 330 328 328 327 328 328 327 324 323 320 317 316 316 317 317 318 319 320 320 320 319 319 322
324 324 324 324 324 325 325 325 326 326 326 327 328 332 334 334 335 336 335 332 331 330 328 327 327 328 326 325 324 322 318 318 317 317 319 321 320 319 318 318 316 317 321
325 325 324 325 325 325 325 325 326 326 326 326 326 328 333 332 333 336 336 332 331 328 328 327 327 327 327 325 323 322 320 320 322 322 321 320 318 317 316 314 316 321 323
325 325 325 325 325 325 325 326 327 327 327 328 327 327 327 331 333 334 335 335 332 332 329 328 327 327 327 327 325 324 323 321 322 322 321 320 319 318 316 318 322 323 322
321 322 323 324 324 324 325 327 327 328 328 329 329 330 328 330 330 334 335 336 334 331 330 328 327 327 327 326 326 325 324 323 322 321 321 321 319 318 316 319 321 321 322
322 323 324 324 324 325 326 327 327 327 327 328 328 331 329 332 333 334 335 335 334 332 329 327 327 326 326 326 326 325 324 323 321 321 321 320 319 318 321 321 322 323 323
Wind_Speed
28 25 25 24 23 23 22 23 19 21 10 15 19 18 20 20 20 19 21 18 20 18 13 11 13 11 9 6 8 9 9 8 4 6 22 21 18 20 19 15 12 9 11
26 24 25 23 23 23 24 21 24 21 21 18 20 20 20 22 22 23 24 19 17 17 18 15 13 12 14 15 8 11 9 6 6 9 19 20 18 18 20 15 11 11 14
24 24 22 23 21 21 23 23 23 25 23 21 23 25 26 27 26 25 25 24 20 21 22 20 18 17 17 14 16 11 15 11 6 7 9 20 18 16 15 15 15 7 20
22 22 23 19 22 22 22 26 24 26 29 26 26 27 27 27 28 28 28 27 26 25 25 23 25 22 20 18 14 16 11 12 14 10 13 20 22 21 16 13 12 14 16
16 11 9 3 9 15 20 19 27 26 28 30 28 27 28 27 28 28 29 29 29 28 25 28 27 25 24 22 21 19 17 15 14 17 14 11 18 24 23 18 18 17 17
23 23 15 8 7 13 10 12 12 21 27 26 29 30 30 31 33 33 32 30 29 28 28 26 26 27 27 27 24 21 24 25 25 16 22 19 16 24 25 22 21 17 10
12 8 21 25 35 8 4 8 14 22 23 26 28 30 31 33 34 35 37 34 31 30 30 30 29 29 33 31 29 27 24 27 23 27 19 13 3 27 27 23 20 18 12
18 18 21 16 14 17 14 12 22 30 31 27 29 30 32 33 35 38 38 38 34 32 34 34 34 32 33 35 34 34 33 27 28 25 27 21 13 17 26 24 22 11 10
13 20 19 17 16 9 5 10 19 45 30 26 28 29 31 32 34 36 38 40 36 36 34 34 38 42 42 36 30 28 26 27 25 26 24 21 16 10 24 22 16 12 8
18 16 15 15 8 2 5 8 15 16 18 22 28 31 28 31 32 35 36 37 34 33 35 35 41 45 43 36 31 29 25 25 28 22 28 30 20 16 23 23 21 18 16
14 14 13 10 9 9 8 7 8 10 13 14 19 24 26 27 27 28 30 35 35 29 31 32 36 42 41 39 35 32 29 21 25 27 30 26 24 22 25 23 21 20 20
10 9 10 11 11 10 13 9 9 11 13 15 21 18 18 21 21 21 26 32 28 31 31 30 32 38 39 37 35 33 27 22 23 25 24 24 26 28 29 24 25 19 12
11 11 12 12 12 12 11 11 13 14 17 12 13 16 14 13 17 22 21 23 25 33 31 33 35 32 35 34 30 28 25 27 25 24 24 22 26 26 24 25 25 24 12
11 11 13 14 13 14 17 19 19 19 17 12 10 11 16 18 17 20 21 19 27 27 21 25 24 27 24 24 24 24 28 27 25 24 23 20 24 24 26 22 23 25 16
12 15 16 16 18 21 24 23 22 20 20 16 14 15 14 14 14 8 19 23 27 32 26 19 21 23 21 22 22 27 29 28 28 21 27 22 25 28 23 22 26 25 20
13 15 16 17 17 12 13 16 18 20 25 30 28 27 25 21 18 19 16 18 20 23 24 20 20 24 24 24 25 25 28 28 29 26 25 23 12 18 26 27 29 25 22
16 15 12 11 11 10 14 17 18 22 25 23 28 27 25 19 18 19 16 17 23 23 20 24 22 24 24 25 26 28 29 30 30 29 24 25 26 24 23 25 22 22 24
13 15 16 13 16 18 13 12 15 16 16 18 24 35 25 16 11 11 13 22 24 29 22 23 26 26 26 28 29 30 29 31 31 33 34 34 28 21 17 25 29 27 18
17 18 20 20 13 12 13 15 19 22 23 24 22 14 23 17 10 9 13 23 25 28 28 23 23 25 28 30 30 31 33 33 35 34 33 33 31 27 23 24 26 25 21
21 22 19 12 12 15 15 15 17 18 20 21 19 14 22 17 10 12 16 24 24 26 28 26 29 28 26 29 30 33 33 32 34 35 33 34 36 31 27 22 23 22 25
15 15 14 11 13 16 14 15 17 17 20 21 17 16 18 10 17 14 18 21 26 27 28 30 27 28 29 29 30 32 33 33 35 37 36 37 37 36 33 27 28 25 28
9 12 13 14 14 16 16 18 18 18 20 21 21 17 12 11 19 17 17 18 20 25 31 31 30 31 32 37 33 32 34 34 35 37 38 35 37 36 33 29 24 31 33
14 17 17 18 19 20 20 21 20 21 21 23 24 20 20 20 22 25 19 17 16 19 25 31 32 31 33 33 36 37 37 38 38 36 35 33 29 33 32 33 34 35 28
22 22 21 21 21 21 21 20 16 19 24 22 20 21 21 18 28 25 15 18 17 19 20 28 32 33 32 37 40 39 40 35 37 40 41 39 38 37 33 32 35 34 29
22 20 18 21 22 23 20 17 15 17 19 21 21 21 21 21 17 12 12 16 18 18 21 23 29 33 35 35 37 41 41 40 41 42 43 43 38 35 35 33 36 35 27
25 24 24 24 23 22 21 20 19 17 19 18 22 23 26 17 10 14 17 13 16 20 21 24 27 30 32 35 38 38 39 42 44 43 38 40 39 35 30 39 45 31 27
Wind_Direction
196 201 208 214 216 219 226 219 214 217 218 173 198 201 196 206 210 210 220 211 213 210 214 218 210 222 224 223 224 245 259 264 282 75 158 171 167 163 164 171 184 211 189
199 207 204 208 214 212 216 221 212 213 215 209 195 204 205 212 213 213 220 226 216 213 210 214 210 217 225 222 212 213 233 242 243 143 151 163 156 174 173 176 186 211 213
190 199 210 200 211 217 213 219 211 211 215 215 209 206 209 211 213 215 217 222 226 218 211 215 214 218 219 212 215 213 217 225 207 246 173 179 175 172 175 189 201 235 200
192 198 197 208 205 210 218 213 220 215 212 216 216 214 212 213 214 215 217 218 224 228 223 220 220 216 219 219 210 218 211 209 216 233 242 182 175 181 184 200 214 211 184
189 130 84 144 229 219 223 220 214 219 219 214 216 218 218 219 220 219 218 220 219 223 226 221 223 218 218 218 213 207 214 208 198 209 237 233 182 170 178 193 208 214 213
126 87 16 78 275 265 255 244 250 240 232 226 220 220 221 219 222 225 221 220 223 220 223 221 216 218 216 218 214 212 206 202 209 205 203 232 210 186 187 197 211 208 207
140 176 230 219 228 257 203 339 289 259 251 244 237 232 229 229 230 230 229 221 220 219 218 219 211 216 214 215 218 217 213 211 211 216 217 202 180 194 190 195 220 221 219
238 232 197 189 220 228 233 257 329 309 259 250 247 242 239 237 235 233 236 233 223 223 219 216 211 206 211 215 220 220 221 217 216 213 229 230 224 196 195 197 207 209 193
181 190 192 199 205 208 140 92 195 252 253 255 252 250 245 244 241 241 238 236 229 227 228 226 215 212 214 214 216 221 223 228 227 223 226 232 220 208 195 184 184 184 202
172 176 183 201 209 214 209 200 224 246 258 260 261 255 252 249 245 242 240 238 231 229 230 225 223 217 214 210 213 209 213 219 222 221 226 230 225 212 200 198 191 196 209
158 166 174 182 188 192 203 227 254 271 282 286 266 264 259 255 256 250 248 243 233 221 215 211 210 214 219 212 215 213 216 235 217 215 214 216 210 195 196 194 192 213 219
166 189 197 200 210 225 204 219 256 273 282 282 282 272 269 260 254 259 256 250 241 215 211 214 213 211 217 220 224 226 236 241 209 201 195 193 192 192 194 194 199 209 233
197 209 231 229 224 233 243 241 248 261 252 255 298 304 291 280 270 265 261 255 231 221 217 225 221 226 230 231 231 238 245 218 208 202 194 195 199 199 200 195 202 217 221
207 227 237 239 242 247 246 246 241 248 244 249 243 269 279 274 269 263 252 246 228 216 213 212 211 210 214 227 237 222 209 213 208 198 192 202 205 201 199 186 196 213 219
213 229 232 234 238 240 240 241 246 254 263 252 260 240 253 265 263 290 254 237 229 229 220 194 189 196 204 212 211 209 212 214 205 202 208 206 200 200 191 191 198 206 215
220 229 235 240 252 257 277 284 283 282 268 259 253 247 252 254 254 269 281 262 239 225 203 196 189 191 195 196 197 199 202 209 206 202 207 213 221 192 189 198 197 201 204
221 245 273 259 260 279 282 273 267 270 275 277 254 249 252 260 258 266 278 251 226 204 195 193 197 200 201 200 200 199 201 201 202 202 197 197 216 225 205 201 205 215 204
218 238 256 257 253 251 263 287 294 288 290 289 268 251 244 242 250 273 263 226 212 210 208 201 205 204 202 201 200 198 198 197 197 200 199 209 206 210 221 203 200 206 217
212 230 242 245 259 281 289 288 283 280 280 277 277 253 223 218 226 242 241 235 219 213 215 217 209 209 204 201 198 197 196 196 194 198 202 202 210 217 224 209 197 199 212
215 229 245 257 270 267 265 273 279 280 285 275 276 264 202 204 207 226 237 238 227 224 220 219 216 213 210 205 199 198 198 198 198 201 202 203 206 214 213 203 204 207 222
218 233 224 234 253 254 256 270 275 280 288 291 272 271 268 253 238 218 228 232 236 232 231 225 217 215 214 208 205 201 200 199 199 201 202 205 206 208 204 207 212 239 240
240 258 258 250 261 267 261 259 263 272 280 283 286 270 263 230 254 237 225 238 246 242 236 232 221 215 212 209 207 203 201 200 202 203 202 199 202 198 201 214 242 237 252
264 265 270 270 261 262 267 264 259 256 257 267 278 275 236 250 251 249 226 230 239 245 238 233 228 222 218 214 211 209 205 205 206 202 193 190 194 195 205 224 234 249 230
257 260 263 263 260 259 261 266 268 286 287 283 277 271 272 245 225 232 233 229 230 243 246 235 230 226 221 220 217 216 213 209 202 195 190 190 199 204 216 229 237 240 219
286 283 285 285 274 269 275 258 252 264 284 286 280 290 270 262 262 265 271 232 223 224 247 249 239 233 228 225 223 221 220 212 201 194 197 205 206 210 225 233 245 241 223
278 275 270 271 274 275 279 268 267 268 273 279 291 297 308 256 241 251 244 244 239 251 252 247 245 240 233 228 230 225 218 211 204 203 206 208 210 218 228 230 235 234 216